www.pogodaiklimat.ru

Погода и климат >> Архив погоды >> Россия >> Калининградская область >> Советск


ПОГОДА в Советске

  • Прогноз погоды в Советске
  • Монитор погоды в Советске

АРХИВ ПОГОДЫ в Советске

Время (UTC), дата Ветер
(напр.,м/с)
 
Видим.   Явления Облачность Т
(С)
Тd
(С)
f
(%)
Тe
(С)
Тes
(С)
Комфортность P
(гПа)
Po
(гПа)
Тmin
(С)
Tmax
(С)
R
(мм)
R24
(мм)
S
(см)
21 11.06 Ю 2-3
{3}
20 км ясно +24.5 +17.2 64 +28 +28 душно 1014.5 1010.2
00 12.06 Ю 3-4
{4}
20 км ясно +21.5 +16.9 75 +25 +25 комфорт 1014.5 1010.2
03 12.06 Ю 2-3
{5}
20 км ясно +20.5 +16.7 79 +24 +25 комфорт 1014.7 1010.4 +20.3
06 12.06 Ю 1-3
{4}
20 км ясно +25.8 +18.4 64 +31 +38 очень
душно
1014.5 1010.2 +20.3
09 12.06 ЮВ 1-4
{4}
20 км ясно +31.0 +18.6 48 +36 +53 опасность
солнечного
удара
1014.5 1010.3
12 12.06 Ю 2-5
{7}
20 км 1/0
[Ac trans]
+32.8 +15.6 36 +35 +49 душно 1013.5 1009.3
15 12.06 Ю 2-5
{8}
20 км 3/0
[Ac trans]
+32.6 +15.5 36 +35 +40 душно 1012.5 1008.3
18 12.06 штиль 0-2
{5}
20 км 3/0
[Cs]
+29.4 +17.7 49 +34 +34 очень
душно
1012.2 1008.0 +33.5
21 12.06 ЮВ 1-3
{3}
20 км 3/0
[Cs]
+24.4 +16.7 62 +28 +28 душно 1012.9 1008.6
00 13.06 Ю 2-5
{5}
20 км 1/0
[Cs]
+23.4 +15.7 62 +28 +28 душно 1013.0 1008.7
03 13.06 ЮВ 2-5
{5}
20 км 1/0
[Ci fib]
+21.8 +15.6 68 +25 +26 комфорт 1012.8 1008.5 +21.5
06 13.06 Ю 2-5
{7}
20 км 3/0
[Ci fib]
+26.2 +18.2 61 +31 +36 очень
душно
1013.2 1008.9 +21.5
09 13.06 Ю 3-7
{7}
20 км 4/0
[Ci fib]
+30.5 +17.8 47 +35 +46 очень
душно
1013.5 1009.3
12 13.06 Ю 3-7
{9}
20 км 3/3 600 м
[Sc]
+32.7 +17.7 41 +37 +45 очень
душно
1012.9 1008.7
15 13.06 СЗ 4-7
{18}
20 км 10/10 600 м
[Sc]
+18.5 +16.6 89 +19 +19 1015.3 1010.9
18 13.06 В 2-4
{10}
20 км гроза, ливневой дождь 10/10 600 м
[Sc]
+17.7 +16.7 94 +18 +18 1014.9 1010.5 +32.8 7
21 13.06 В 1-2
{6}
20 км {ливн. осадки} 10/10 600 м
[Sc]
+17.6 +16.6 94 +19 +19 1016.7 1012.3
00 14.06 С 1-2
{5}
20 км {ливн. осадки} 10/10 600 м
[Sc]
+17.8 +17.2 96 +19 +19 1017.3 1012.9
03 14.06 С 1-2
{7}
10 км слаб. ливневой дождь 10/10 300 м
[Cb cap]
+17.4 +16.8 96 +18 +18 1016.4 1012.0 +17.2 11
06 14.06 З 1-3
{4}
20 км {ливн. осадки} 6/0
[Ci fib]
+20.4 +17.6 84 +25 +31 комфорт 1018.1 1013.7 +17.2 5
09 14.06 З 3-6
{6}
20 км 9/9 600 м
[Sc]
+22.0 +17.4 75 +26 +28 душно 1019.6 1015.3
12 14.06 СЗ 3-6
{7}
20 км 4/0
[Ci fib]
+21.9 +15.8 68 +26 +37 душно 1020.9 1016.5
15 14.06 СЗ 2-4
{6}
20 км 1/0
[Ci fib]
+23.3 +13.7 55 +27 +33 душно 1020.4 1016.1 0.5
18 14.06 СЗ 3-5
{5}
20 км ясно +21.0 +15.2 69 +25 +25 комфорт 1020.3 1015.9 +24.0
21 14.06 СЗ 2-4
{4}
20 км 1/0
[Ci fib]
+17.9 +15.8 88 +18 +18 1021.3 1016.9
00 15.06 С 1-2
{4}
20 км 3/0
[Ci fib]
+16.0 +15.2 95 +17 +17 1020.5 1016.1
03 15.06 С 1-3
{5}
20 км дым ясно +15.5 +14.8 96 +16 +16 1020.4 1016.0
06 15.06 В 1-3
{3}
20 км 3/0
[Ci fib]
+21.0 +16.6 76 +26 +33 душно 1020.3 1015.9 +15.0
09 15.06 В 1-3
{4}
20 км 6/6 600 м
[Cu hum]
+23.7 +15.3 59 +27 +33 жарко 1019.5 1015.2
12 15.06 ЮВ 2-4
{5}
20 км 8/8 600 м
[Cu med, cong]
+26.2 +15.0 50 +29 +32 жарко 1018.1 1013.8
15 15.06 В 2-4
{6}
20 км 8/0
[Ac trans]
+26.2 +13.3 45 +28 +31 жарко 1017.1 1012.8
18 15.06 В 2-4
{6}
20 км ясно +23.0 +12.9 53 +26 +26 жарко 1015.2 1010.9 +27.0
21 15.06 В 3-6
{6}
20 км 3/0
[Ac trans]
+18.9 +11.7 63 +20 +20 1014.5 1010.1
00 16.06 В 4-6
{8}
20 км 10/10 600 м
[Sc]
+18.8 +12.1 65 +19 +19 1013.6 1009.2
03 16.06 В 5-8
{11}
10 км гроза, ливневой дождь 10/10 300 м
[Cb cap]
+15.1 +14.3 95 +14 +14 1013.0 1008.5 +15.1 7
06 16.06 В 4-5
{7}
20 км {гроза, ливн. осадки} 8/8 600 м
[Sc]
+15.7 +14.9 95 +15 +16 1010.3 1005.9 +15.1 12
09 16.06 В 1-3
{3}
20 км 9/9 600 м
[Sc]
+20.8 +16.8 78 +25 +27 комфорт 1014.1 1009.8
12 16.06 Ю 2-3
{5}
20 км 10/10 600 м
[Sc]
+23.0 +18.1 74 +29 +29 очень
душно
1013.7 1009.4
15 16.06 З 3-9
{9}
20 км 10/10 600 м
[Sc]
+19.4 +16.4 83 +22 +22 комфорт 1014.3 1009.9 5
18 16.06 З 3-8
{9}
20 км 10/10 600 м
[Sc]
+16.8 +15.1 90 +17 +17 1015.3 1010.9 +24.5
21 16.06 ЮЗ 3-6
{6}
10 км в посл. час ливневой дождь 10/10 600 м
[Sc]
+16.1 +15.3 95 +16 +16 1015.4 1011.0
00 17.06 З 3-5
{8}
20 км {ливн. осадки} 10/10 600 м
[Sc]
+15.9 +14.2 90 +15 +15 1016.2 1011.7
03 17.06 ЮЗ 2-4
{5}
20 км 10/10 600 м
[Sc]
+15.6 +14.6 94 +15 +15 1016.2 1011.8 +15.6 0.6
06 17.06 З 3-7
{7}
20 км 10/10 600 м
[Sc]
+17.1 +15.7 91 +17 +17 1016.7 1012.3 +15.6 0.6
09 17.06 З 3-6
{7}
20 км {ливн. осадки} 9/9 600 м
[Sc]
+19.5 +15.9 80 +22 +23 комфорт 1018.1 1013.7
12 17.06 З 4-9
{9}
20 км {ливн. осадки} 6/6 600 м
[Sc]
+22.0 +16.3 70 +26 +30 душно 1018.7 1014.4
15 17.06 СЗ 5-10
{11}
20 км 1/1 600 м
[Sc]
+20.8 +13.2 62 +23 +26 комфорт 1019.9 1015.4 0.4
18 17.06 СЗ 4-7
{10}
20 км ясно +18.1 +11.2 64 +18 +18 1020.3 1015.9 +22.4 0.4
21 17.06 З 2-3
{7}
20 км 1/0
[Ci fib]
+15.4 +12.1 81 +15 +15 1021.0 1016.5
00 18.06 З 1-2
{2}
20 км 1/0
[Ci fib]
+13.1 +11.8 92 +13 +13 1021.4 1016.9
03 18.06 ЮЗ 2-3
{3}
20 км ясно +11.0 +10.2 95 +10 +10 1021.4 1016.9 +10.9
06 18.06 З 2-5
{5}
20 км ясно +19.0 +13.9 72 +21 +27 комфорт 1021.6 1017.2 +10.9
09 18.06 ЮЗ 1-3
{5}
20 км 4/0
[Ac trans]
+22.4 +14.1 59 +26 +39 жарко 1021.7 1017.3
12 18.06 ЮЗ 2-4
{4}
20 км 6/0
[Ac trans]
+24.2 +13.0 50 +26 +36 жарко 1021.0 1016.7
15 18.06 С 1-2
{4}
20 км 4/0
[Ac trans]
+24.0 +14.2 54 +26 +32 жарко 1019.7 1015.4

 

Местоположение метеостанции Советск (Калининградская область, Россия): широта 55.08 долгота 21.93 высота над уровнем моря 36 м.

В архиве по умолчанию представлена погода в Советске за последнюю неделю. Архивные данные за месяц целиком и за предыдущие месяцы, начиная с января 2011 года, Вы можете получить, выбрав интересующий диапазон дат из раскрывающегося списка и нажав кнопку "Ввод!".


*Определитесь, кто Вы:
робот инопланетянин человек

Внимание! Время в таблицах - всемирное. Для получения местного времени необходимо прибавить поправку, которая равна 2 ч.

Смотрите также архив погоды в соседних городах и на ближайших метеорологических станциях:

Погода в Шилуте (Литва) (43 км)
Погода в Черняховске (Калининградская область, Россия) (51 км)
Погода в Лаукуве (Литва) (63 км)
Погода в Ниде (Литва) (64 км)
Погода в Рыбачем (Калининградская область, Россия) (70 км)
Погода в Кибартае (Литва) (74 км)
Погода в Расейняе (Литва) (85 км)
Погода в Виштынце (Калининградская область, Россия) (88 км)
Погода в Железнодорожном (Калининградская область, Россия) (89 км)
Погода в Kлайпеде (Литва) (90 км)

Пояснения к столбцам:

Ветер - указаны скорость ветра в м/с - средняя за 10 мин, порывы в срок и между сроками (в фигурных скобках) и направление, откуда дует ветер: С - северный, СВ - северо-восточный, В - восточный, ЮВ - юго-восточный, Ю - южный, ЮЗ - юго-западный, З - западный, СЗ - северо-западный.
Видимость - горизонтальная дальность видимости в метрах или километрах. При видимости от 1 до 10 км при отсутствии осадков обычно наблюдается дымка, при ухудшении видимости до 1 км и менее - туман. В сухую погоду видимость может ухудшаться дымом, пылью или мглою.
Явления - указаны атмосферные явления, наблюдавшиеся в срок или в последний час перед сроком; фигурными скобками обозначены явления, наблюдавшиеся между сроками (за 1-3 часа до срока); квадратными скобками обозначены град или гололедные отложения с указанием их диаметра в мм.
Облачность - указаны через наклонную черту общая и нижняя облачность в баллах и высота нижней границы облаков в метрах; квадратными скобками обозначены формы облаков: Ci - перистые, Cs - перисто-слоистые, Cc - перисто-кучевые, Ac - высококучевые, As - высокослоистые, Sc - слоисто-кучевые, Ns - слоисто-дождевые, Cu - кучевые, Cb - кучево-дождевые. Подробнее классификацию облаков см. в Атласе облаков (PDF).
T - Температура воздуха - температура, измеренная на высоте 2 м над землей.
Td - Температура точки росы - температура, при понижении до которой содержащийся в воздухе водяной пар достигнет насыщения.
f - Относительная влажность воздуха - влажноcть воздуха, измеренная на высоте 2 м над землей.
Te - Эффективная температура - температура, которую ощущает одетый по сезону человек в тени. Характеристика душности погоды. При расчете учитывается влияние влажности воздуха и скорости ветра на теплоощущения человека.
Tes - Эффективная температура на солнце - температура, которую ощущает человек, с поправкой на солнечный нагрев. Характеристика знойности погоды. Зависит от высоты солнца над горизонтом, облачности и скорости ветра. Ночью, в пасмурную погоду, а также при ветре 12 м/с и более поправка равна нулю.
P - Атмосферное давление - приведенное к уровню моря атмосферное давление.
Po - Атмосферное давление - измеренное на уровне метеостанции атмосферное давление.
Tmin - Минимальная температура - минимум температуры воздуха на высоте 2 м над землей.
Tmax - Максимальная температура - максимум температуры воздуха на высоте 2 м над землей.
R - Количество осадков - Количество выпавших осадков за период времени, мм. При наведении курсора мыши на число - период времени, за который выпало указанное количество осадков.
R24 - Количество осадков - Количество выпавших осадков за 24 часа, мм.
S - Снежный покров - Высота снежного покрова, см. При наведении курсора мыши на число - состояние снежного покрова и степень покрытия местности в баллах.